EHI
0 0 0 0 0 0 0 0 0 0 0 0 0 0 0 0 0 0 0 0 0 0 0 0 0 0 0 0 0 0 0 0 0 0 0 0 0 0 0 0 0 0 0 0
0 0 0 0 0 0 0 0 0 0 0 0 0 0 0 0 0 0 0 0 0 0 0 0 0 0 0 0 0 0 0 0 0 0 0 0 0 0 0 0 0 0 0 0
0 0 0 0 0 0 0 0 0 0 0 0 0 0 0 0 0 0 0 0 0 0 0 0 0 0 0 0 0 0 0 0 0 0 0 0 0 0 0 0 0 0 1 1
0 0 0 0 0 0 0 0 0 0 0 0 0 0 0 0 0 0 0 0 0 0 0 0 0 0 0 0 0 0 0 0 0 0 0 0 0 0 0 0 0 0 0 0
0 0 0 0 0 0 0 0 0 0 0 0 0 0 0 0 0 0 0 0 0 0 0 0 0 0 0 0 0 0 0 0 0 0 0 0 0 0 0 0 0 0 0 0
0 0 0 0 0 0 0 0 0 0 0 0 0 0 0 0 0 0 0 0 0 0 0 0 0 0 0 0 0 0 0 0 0 0 0 0 0 0 0 0 0 0 0 0
0 0 0 0 0 0 0 0 0 0 0 0 0 0 0 0 0 0 0 0 0 0 0 0 0 0 0 0 0 0 0 0 0 0 0 0 0 0 0 0 0 0 0 0
0 0 0 0 0 0 0 0 0 0 0 0 0 0 0 0 0 0 0 0 0 0 0 0 0 0 0 0 0 0 0 0 0 0 0 0 0 0 0 0 0 0 0 0
0 0 0 0 0 0 0 0 0 0 0 0 0 0 0 0 0 0 0 0 0 0 0 0 0 0 0 0 0 0 0 0 0 0 0 0 0 0 0 0 0 0 0 0
0 0 0 0 0 0 0 0 0 0 0 0 0 0 0 0 0 0 0 0 0 0 0 0 0 0 0 0 0 0 0 0 0 0 0 0 0 0 0 0 0 0 0 0
0 0 0 0 0 0 0 0 0 0 0 0 0 0 0 0 0 0 0 0 0 0 0 0 0 0 0 0 0 0 0 0 0 0 0 0 0 0 0 0 0 0 0 0
0 0 0 0 0 0 0 0 0 0 0 0 0 0 0 0 0 0 0 0 0 0 0 0 0 0 0 0 0 0 0 0 0 0 0 0 0 0 0 0 0 0 0 0
0 0 0 0 0 0 0 0 0 0 0 0 0 0 0 0 0 0 0 0 0 0 0 0 0 0 0 0 0 0 0 0 0 0 0 0 0 0 0 0 0 0 0 0
0 0 0 0 0 0 0 0 0 0 0 0 0 0 0 0 0 0 0 0 0 0 0 0 0 0 0 0 0 0 0 0 0 0 0 0 0 0 0 0 0 0 0 0
0 0 0 0 0 0 0 0 0 0 0 0 0 0 0 0 0 0 0 0 0 0 0 0 0 0 0 0 0 0 0 0 0 0 0 0 0 0 0 0 0 0 0 0
0 0 0 0 0 0 0 0 0 0 0 0 0 0 0 0 0 0 0 0 0 0 0 0 0 0 0 0 0 0 0 0 0 0 0 0 0 0 0 0 0 0 0 0
0 0 0 0 0 0 0 0 0 0 0 0 0 0 0 0 0 0 0 0 0 0 0 0 0 0 0 0 0 0 0 0 0 0 0 0 0 0 0 0 0 0 0 0
0 0 0 0 0 0 0 0 0 0 0 0 0 0 0 0 0 0 0 0 0 0 0 0 0 0 0 0 0 0 0 0 0 0 0 0 0 0 0 0 0 0 0 0
0 0 0 0 0 0 0 0 0 0 0 0 0 0 0 0 0 0 0 0 0 0 0 0 0 0 0 0 0 0 0 0 0 0 0 0 0 0 0 0 0 0 0 0
0 0 0 0 0 0 0 0 0 0 0 0 0 0 0 0 0 0 0 0 0 0 0 0 0 0 0 0 0 0 0 0 0 0 0 0 0 0 0 0 0 0 0 0
0 0 0 0 0 0 0 0 0 0 0 0 0 0 0 0 0 0 0 0 0 0 0 0 0 0 0 0 0 0 0 0 0 0 0 0 0 0 0 0 0 0 0 0
0 0 0 0 0 0 0 0 0 0 0 0 0 0 0 0 0 0 0 0 0 0 0 0 0 0 0 0 0 0 0 0 0 0 0 0 0 0 0 0 0 0 0 0
0 0 0 0 0 0 0 0 0 0 0 0 0 0 0 0 0 0 0 0 0 0 0 0 0 0 0 0 0 0 0 0 0 0 0 0 0 0 0 0 0 0 0 0
0 0 0 0 0 0 0 0 0 0 0 0 0 0 0 0 0 0 0 0 0 0 0 0 0 0 0 0 0 0 0 0 0 0 0 0 0 0 0 0 0 0 0 0
0 0 0 0 0 0 0 0 0 0 0 0 0 0 0 0 0 0 0 0 0 0 0 0 0 0 0 0 0 0 0 0 0 0 0 0 0 0 0 0 0 0 0 0
0 0 0 0 0 0 0 0 0 0 0 0 0 0 0 0 0 0 0 0 0 0 0 0 0 0 0 0 0 0 0 0 0 0 0 0 0 0 0 0 0 0 0 0
Wind_Speed
6 7 10 11 12 9 6 9 11 8 5 7 12 15 14 10 8 9 8 8 7 7 4 2 2 2 1 2 2 3 3 4 4 4 4 4 4 4 3 3 4 4 4 5
7 12 11 7 8 9 10 11 12 8 5 7 11 15 13 9 9 9 9 8 8 6 4 3 2 2 2 2 2 2 2 4 4 4 3 3 3 3 2 3 4 4 4 4
13 4 5 9 10 11 13 13 12 9 6 6 9 11 9 6 6 6 7 7 7 7 5 4 3 3 2 2 2 2 2 3 4 4 3 3 3 2 2 3 3 3 4 4
12 8 7 9 11 12 11 9 10 9 8 6 5 8 7 7 7 7 6 6 6 6 6 4 3 3 3 2 2 2 3 3 3 5 5 6 4 4 3 2 2 3 3 4
8 8 10 12 11 11 6 2 6 8 9 8 8 9 8 6 8 8 7 6 6 6 6 5 4 3 3 2 2 2 2 2 3 4 5 5 4 3 2 3 3 3 2 3
8 5 7 7 5 8 5 3 3 5 6 9 10 10 8 6 9 7 7 6 6 5 5 4 3 3 3 2 3 3 3 3 3 3 4 5 5 4 4 3 3 2 2 2
9 9 7 5 5 7 8 6 4 5 7 8 4 9 8 4 6 7 6 6 5 5 5 4 4 4 3 3 3 3 3 3 3 3 4 4 4 4 4 4 3 2 2 1
9 8 11 9 10 8 11 10 7 6 6 4 5 10 5 2 2 3 4 4 5 5 5 5 4 4 4 4 4 4 4 4 3 3 3 3 3 2 2 3 2 2 2 1
9 6 4 7 5 8 9 10 6 4 4 6 7 6 5 4 4 3 3 4 5 5 5 4 4 4 4 4 4 4 4 4 3 3 3 3 3 3 3 3 2 2 1 1
6 6 4 4 4 5 5 5 6 7 6 8 8 8 6 7 7 5 4 4 4 4 4 4 4 4 4 4 4 4 4 4 4 3 3 2 2 3 3 2 3 2 2 2
6 7 4 6 11 12 9 8 8 7 6 7 7 5 1 6 6 5 4 4 4 5 5 4 4 4 4 4 4 4 4 4 3 3 3 3 2 2 2 2 2 2 2 2
7 6 6 7 2 4 9 9 10 8 7 7 7 5 2 2 3 4 3 3 3 3 4 4 4 4 5 5 5 5 4 4 3 3 3 2 2 2 2 2 2 2 2 2
6 6 5 5 5 5 7 8 9 6 4 7 9 6 2 1 2 2 2 2 2 3 3 3 4 4 5 5 5 5 4 4 4 4 3 3 2 2 2 2 2 2 2 2
4 7 10 11 5 6 8 10 12 10 8 10 13 12 6 5 5 4 3 2 2 3 4 4 4 4 4 4 5 5 4 4 4 4 4 3 3 3 2 2 2 2 2 2
4 8 9 11 8 7 9 11 14 16 15 12 12 13 12 7 6 5 3 3 3 3 4 4 4 4 4 4 4 4 4 4 4 4 4 3 3 3 2 2 2 2 2 2
4 7 6 9 8 9 12 13 15 16 16 16 14 15 9 5 4 4 4 4 4 4 4 3 3 4 4 4 3 3 4 4 4 4 4 3 3 3 2 2 2 2 2 2
5 6 6 9 6 6 13 13 13 12 11 12 15 13 5 4 5 6 6 6 5 5 4 4 3 4 3 3 3 3 3 4 4 4 3 3 3 3 2 2 2 2 2 2
8 8 6 6 5 13 6 2 9 12 11 10 8 5 6 6 5 4 4 5 5 4 4 3 3 2 2 2 2 2 2 3 3 3 3 3 3 3 3 2 2 2 2 2
11 9 6 6 10 11 6 2 4 8 9 7 8 7 4 2 1 2 2 3 3 3 3 2 2 2 2 2 2 2 2 3 3 3 3 3 3 3 3 3 3 2 2 2
8 8 7 7 8 9 4 2 3 5 8 3 5 6 5 5 5 3 1 1 1 1 1 1 1 2 2 2 3 3 3 3 3 3 3 3 3 3 3 3 2 2 3 3
5 6 9 9 9 6 3 2 3 7 4 1 4 5 5 5 3 1 2 1 1 1 1 2 2 2 2 2 3 3 2 2 2 2 2 2 2 3 3 2 2 3 3 3
5 5 6 6 7 6 1 2 4 3 3 1 2 2 2 0 2 2 2 2 1 1 1 2 2 1 1 1 2 2 2 1 1 1 1 2 2 2 2 3 2 3 3 3
4 4 3 4 3 2 0 1 2 2 2 2 1 0 2 2 2 2 1 1 1 1 1 1 1 1 0 1 2 2 2 1 2 1 1 1 2 2 2 3 3 3 3 3
2 2 2 2 2 3 3 2 2 2 1 1 0 1 2 2 1 1 1 1 1 1 0 1 1 1 1 1 1 1 1 1 1 2 1 2 2 2 2 2 2 3 3 3
4 2 2 3 3 4 3 2 2 2 2 2 1 0 1 1 1 1 1 0 0 0 0 0 1 1 1 0 0 1 1 1 1 1 2 2 2 2 2 3 3 4 4 4
4 3 3 3 4 4 4 4 3 2 1 1 1 1 1 1 1 1 1 1 1 1 0 1 1 1 1 1 1 1 1 1 2 2 2 2 2 2 2 3 3 4 6 6
Wind_Direction
190 214 221 219 220 243 257 254 262 267 269 260 256 264 269 263 247 239 235 233 231 236 235 231 236 222 203 190 180 182 184 170 164 169 167 171 175 173 169 167 171 173 169 170
199 229 233 226 221 228 239 253 263 272 259 262 272 271 269 255 244 238 233 231 229 227 226 229 220 201 190 183 179 171 184 172 169 175 174 177 165 164 166 166 169 172 170 169
218 219 201 209 213 222 235 243 254 267 290 248 272 266 245 233 228 233 234 230 231 225 218 216 208 199 188 179 185 179 179 173 169 168 160 146 135 135 152 165 168 175 172 169
232 229 208 212 221 223 245 238 248 256 263 252 243 273 242 223 222 219 222 220 223 223 217 206 197 191 181 182 177 176 169 163 166 165 163 163 168 172 182 179 176 174 175 175
221 207 212 222 224 215 238 215 232 244 253 262 230 252 251 207 216 215 215 218 221 216 203 192 182 176 161 152 152 154 149 145 150 159 165 166 170 168 155 155 161 166 168 176
240 215 223 230 223 212 189 178 219 231 239 250 228 233 255 208 219 214 216 213 210 203 191 180 166 151 142 142 141 140 144 139 139 151 161 164 167 159 152 157 162 169 169 174
227 221 214 203 190 185 195 201 224 218 219 241 197 229 250 227 221 220 223 211 201 193 183 173 167 162 155 153 152 152 147 136 133 142 157 168 170 165 167 170 172 171 174 177
223 224 199 202 211 197 199 210 223 240 245 240 202 236 242 217 212 209 216 203 194 191 185 178 179 176 170 165 162 159 156 146 142 142 150 162 165 168 168 171 171 181 190 187
221 227 167 201 211 201 191 214 239 265 276 264 235 239 252 206 193 186 188 184 192 195 191 188 183 181 179 171 167 164 159 148 145 145 142 149 159 164 163 167 174 182 186 173
227 234 193 172 180 215 232 189 184 210 230 246 246 241 231 194 194 184 183 181 190 197 197 195 191 189 185 175 163 157 158 154 149 145 142 137 148 150 154 161 163 173 186 185
220 222 193 187 205 200 188 197 212 218 241 250 255 244 179 204 196 194 203 203 197 197 198 195 190 187 181 170 163 160 160 155 150 149 148 139 138 148 151 155 167 176 180 185
209 222 226 220 220 251 215 212 203 214 222 235 262 264 83 197 198 200 212 213 208 202 193 186 184 177 174 172 170 170 169 166 164 159 154 147 145 156 162 167 173 177 177 186
186 207 213 209 199 190 213 215 219 233 235 224 238 247 103 205 218 226 225 223 213 192 184 181 183 182 182 184 181 178 176 173 170 168 166 162 168 176 177 180 182 180 181 185
218 224 230 241 243 185 208 216 213 211 222 234 239 253 240 246 258 260 249 214 204 190 184 186 191 192 189 190 188 184 182 177 174 175 176 181 187 194 191 191 195 195 191 190
222 241 245 259 263 235 233 227 217 220 227 236 248 252 257 248 246 245 229 201 191 195 195 197 199 196 192 190 190 190 187 183 182 184 190 194 197 195 188 190 196 199 201 202
229 240 245 255 252 248 251 243 229 230 236 243 254 259 269 260 227 219 210 198 196 200 201 199 197 195 197 196 194 194 196 194 190 192 199 196 195 192 192 195 196 195 201 206
225 221 226 248 249 251 247 235 226 226 229 232 242 250 243 234 224 221 212 206 204 203 205 205 204 203 201 201 197 193 196 191 190 191 198 199 197 192 193 196 200 205 208 209
227 226 231 243 223 239 252 235 225 230 234 233 242 245 225 232 236 237 218 207 205 208 209 209 208 205 200 194 193 180 184 188 185 188 197 202 204 200 199 202 212 222 222 222
223 220 223 224 238 255 253 237 220 229 246 239 235 238 229 197 202 247 233 213 208 207 207 206 202 190 174 172 168 156 173 181 184 195 200 205 206 203 202 208 217 228 229 234
210 218 222 220 231 241 263 266 252 231 245 223 228 231 215 197 222 225 176 171 177 176 179 171 160 154 160 168 166 162 177 184 194 204 210 211 212 208 210 216 225 237 235 238
192 204 218 225 234 252 300 303 181 213 267 265 229 229 211 223 254 140 136 141 143 141 147 147 146 154 164 164 163 164 175 203 212 202 200 215 220 212 213 218 227 230 233 236
214 210 213 218 226 243 357 157 202 289 338 300 237 228 204 123 96 124 133 128 116 105 113 130 129 126 130 155 161 165 192 213 206 198 202 220 227 217 210 211 224 228 227 229
234 242 242 229 243 326 140 238 297 309 304 322 304 226 146 127 137 132 137 128 108 95 79 97 123 120 123 185 184 179 203 196 186 192 215 228 234 226 220 218 222 233 230 232
268 280 242 249 288 305 312 328 333 318 319 335 21 145 150 148 156 138 136 113 75 41 57 130 147 160 208 239 220 203 206 196 190 206 230 239 237 237 236 234 231 234 234 238
299 272 249 257 291 305 309 322 340 357 23 48 45 77 166 154 176 188 200 223 198 256 296 194 188 195 226 252 263 261 229 206 210 235 256 258 253 248 250 252 252 249 248 251
291 269 256 271 290 293 307 323 334 343 345 5 48 22 352 176 203 215 216 225 231 236 232 204 215 221 246 263 285 293 270 230 222 242 255 261 258 252 252 253 262 256 252 263